Theta_e
314 316 318 319 319 320 321 322 323 324 325 326 327 327 328 327 326 325 324 323 323 320 319 319 318 317 317 316 316 316 316 316 316 315 315 313 311 310 309 310 307 306 305 304 304 304 302 300 299 298 299 297 295 295 295 295 295 295 295 294 293 293 293 291 288 287 291 293 293 292 292 291 289 291 289 290 289 290 289 289 289 289 289 288 288
312 314 315 317 318 319 320 321 323 324 324 325 325 326 326 325 324 323 322 321 320 319 318 317 316 316 316 315 315 315 315 315 313 313 312 310 308 308 308 308 305 304 302 301 302 301 300 298 297 296 297 295 293 293 293 292 292 292 292 292 291 290 292 291 289 287 286 289 290 290 290 291 287 290 288 287 287 288 287 288 289 288 288 288 288
311 313 314 315 316 317 318 319 321 322 322 322 322 323 323 323 322 319 319 318 317 318 317 316 315 315 314 313 315 314 314 313 313 312 310 309 307 306 306 306 305 302 300 299 299 299 298 296 294 294 295 293 292 292 292 291 292 291 291 291 291 290 290 290 288 286 286 286 288 286 287 288 287 287 288 289 288 288 286 286 287 288 288 288 287
309 311 312 313 314 315 316 317 317 318 318 319 319 320 320 319 318 317 317 316 315 314 315 315 313 313 312 311 312 312 312 311 311 311 310 308 306 305 306 306 305 302 301 299 298 297 296 295 293 292 292 291 291 290 290 290 291 290 289 289 290 289 289 289 289 287 286 285 286 286 287 286 286 288 289 288 286 285 285 286 287 287 287 287 287
308 309 310 311 312 313 314 314 315 315 315 316 316 316 317 316 315 315 315 314 313 312 310 311 311 311 311 311 310 309 309 309 309 309 308 307 306 305 305 304 303 301 300 298 294 296 296 294 293 292 291 290 289 289 289 289 290 289 288 288 288 289 289 288 287 287 286 284 285 287 287 286 286 286 286 285 284 284 284 284 284 284 285 286 287
305 306 307 308 308 310 311 312 312 313 313 314 314 314 313 313 312 311 312 312 309 308 308 308 308 309 310 310 309 308 308 308 308 308 307 305 303 303 302 300 300 299 297 296 296 296 294 293 291 291 291 290 289 289 289 289 289 289 288 288 288 288 287 287 287 286 285 285 285 284 285 285 284 284 285 285 283 282 282 283 283 283 283 283 284
304 304 304 305 306 307 308 309 310 310 310 311 310 309 310 308 308 309 306 308 307 305 304 305 303 307 307 306 306 306 306 306 307 307 305 303 302 299 298 298 298 297 296 295 295 295 294 293 291 291 291 291 289 289 289 289 288 288 288 288 287 287 286 286 285 285 284 284 284 284 284 285 284 282 285 285 283 283 281 280 280 282 282 282 282
303 303 303 303 304 305 306 306 306 307 307 306 306 304 305 304 304 303 300 304 302 302 302 303 300 301 303 303 304 302 302 302 303 302 301 300 299 298 297 296 296 295 295 294 294 293 292 292 291 291 291 291 290 289 289 288 288 288 288 288 287 286 286 286 284 284 284 284 284 283 283 283 283 284 284 283 281 281 282 280 278 279 280 281 281
302 302 302 303 304 305 306 304 304 304 300 300 299 299 299 298 297 297 297 298 300 300 301 300 298 298 298 299 299 298 300 300 300 299 298 298 299 298 297 296 295 294 293 291 291 291 291 291 290 291 290 288 288 289 289 289 288 287 287 287 287 286 286 285 285 285 284 284 283 284 282 281 282 282 280 280 279 279 280 280 279 280 280 280 281
302 302 301 302 303 304 304 301 301 299 298 297 295 295 295 295 295 294 295 296 296 296 297 298 298 298 298 296 296 296 297 298 294 295 297 298 298 297 296 295 294 293 291 290 290 290 289 289 288 286 285 286 286 287 288 288 288 288 287 287 286 285 284 284 284 284 284 283 283 282 280 281 280 280 279 279 280 280 279 279 278 279 279 278 279
302 302 302 302 302 299 298 297 295 295 295 294 294 294 294 293 292 293 293 293 293 293 294 295 295 296 297 297 296 295 295 296 293 296 297 297 297 296 295 294 293 291 290 289 289 288 288 287 286 285 285 285 286 287 287 287 287 287 287 287 287 286 284 283 284 284 283 283 283 281 280 279 280 280 279 280 280 279 278 278 278 278 276 275 274
302 302 302 301 299 297 295 295 293 293 293 293 293 293 292 291 292 292 292 291 291 291 292 294 295 294 295 295 295 295 295 292 294 295 296 296 295 295 294 293 291 291 290 289 288 287 286 285 285 285 285 285 285 285 286 286 286 285 285 285 285 285 286 285 284 283 283 282 282 281 280 280 279 280 279 279 279 278 278 278 278 276 275 274 275
302 302 301 298 296 294 293 293 292 292 292 292 291 291 291 291 291 291 291 291 290 291 292 292 292 291 292 293 293 292 292 292 294 295 295 295 295 294 293 293 292 291 289 288 287 286 285 284 284 285 285 285 285 285 284 284 284 284 284 283 284 284 284 284 284 284 284 282 281 280 280 280 279 280 280 279 280 277 278 276 277 276 275 275 275
300 299 297 296 295 294 293 292 292 292 292 291 291 291 290 291 291 291 290 290 290 290 290 291 291 291 292 292 291 291 291 291 294 294 294 294 294 293 293 293 291 290 289 287 286 285 285 284 284 284 284 284 285 284 284 283 282 282 282 281 282 282 283 284 282 282 282 282 281 280 281 282 280 280 281 281 278 276 276 276 277 276 275 275 276
299 297 295 295 294 294 293 292 292 292 291 291 290 290 290 290 290 290 290 290 290 291 290 290 290 290 290 291 291 291 291 291 293 293 294 294 294 293 293 291 289 288 287 286 286 285 285 284 284 284 284 284 284 284 283 282 282 281 281 281 281 281 281 281 281 281 281 282 282 281 281 282 281 281 280 280 280 279 278 277 276 276 276 277 276
296 295 295 294 293 293 292 292 292 291 290 290 290 290 290 289 288 289 290 290 290 290 290 290 289 289 289 290 290 291 291 291 292 293 293 293 293 291 290 289 288 287 286 286 285 285 285 284 284 283 283 283 285 286 284 283 282 281 280 281 281 282 281 283 283 283 283 282 282 282 281 281 281 280 280 280 279 279 277 276 275 274 273 273 272
294 295 294 293 292 292 292 292 291 291 290 289 289 289 289 289 289 289 288 288 289 289 289 289 289 288 288 288 290 290 289 289 291 292 292 293 291 289 288 288 287 286 285 285 285 284 284 284 284 283 283 283 285 286 286 284 282 280 280 280 281 281 280 281 282 283 282 281 280 280 280 281 281 281 281 281 279 276 274 273 272 273 271 270 271
294 294 293 295 293 293 292 292 291 290 289 289 289 289 289 290 289 288 289 289 289 289 289 289 288 288 288 288 289 289 289 288 290 291 292 292 289 288 287 287 286 285 285 284 284 284 284 284 284 283 283 283 286 286 286 284 281 280 280 280 279 278 279 280 281 282 281 279 278 279 279 279 279 279 279 278 278 277 273 271 272 272 270 270 269
294 294 294 295 294 293 292 290 290 289 289 289 289 289 288 289 289 289 290 289 289 289 289 289 288 288 287 288 287 288 288 287 289 290 291 291 289 287 287 287 285 284 284 283 283 283 283 284 284 284 283 284 286 287 287 284 281 280 280 279 278 278 279 280 280 279 278 275 275 276 276 277 277 276 276 277 277 277 276 274 273 271 269 269 269
295 296 296 295 294 293 293 289 289 289 288 288 288 289 289 289 288 288 289 290 289 289 289 288 287 287 287 287 287 288 288 288 288 290 290 291 290 287 287 286 284 284 283 282 281 282 282 282 283 285 285 286 287 287 287 285 282 281 280 279 278 278 280 280 280 279 277 275 274 275 275 276 275 275 274 274 275 276 275 274 274 271 269 269 268
295 295 295 294 292 291 290 289 288 288 288 288 288 288 289 288 287 288 288 289 288 288 287 287 287 286 286 287 287 287 288 287 287 290 290 290 290 287 286 286 285 284 283 282 281 281 281 281 282 284 285 286 287 287 287 286 283 281 280 279 280 281 281 278 278 278 275 274 274 274 274 274 273 272 273 273 274 274 275 275 273 273 270 268 267
294 294 294 292 291 289 289 288 288 288 288 288 287 288 288 287 287 287 289 287 286 286 286 286 287 286 286 286 286 287 287 287 287 288 289 290 289 288 286 286 286 284 282 281 282 281 281 282 282 283 285 286 287 287 287 287 285 281 281 282 282 282 278 277 276 276 275 274 273 273 273 273 273 273 273 273 274 274 273 272 272 271 271 270 269
293 293 290 290 288 287 287 287 287 287 287 288 287 287 287 287 287 287 286 286 286 285 285 286 286 286 286 286 286 286 286 286 286 287 288 289 289 288 288 287 287 284 283 281 282 282 282 282 282 283 285 285 286 287 287 287 285 282 283 283 282 281 279 276 275 274 274 273 273 273 273 273 272 272 272 272 273 273 272 271 271 270 270 270 271
290 290 289 287 287 287 287 287 287 287 287 287 287 287 286 286 286 288 287 287 287 286 286 286 286 286 286 286 286 286 285 287 286 286 287 287 288 288 288 288 287 284 284 283 283 283 282 282 282 284 285 285 286 286 286 286 284 284 283 283 282 281 276 275 274 273 273 273 272 272 272 273 272 272 272 272 272 271 270 270 269 269 268 269 270
287 286 286 286 287 287 287 287 287 287 287 287 287 287 286 286 286 286 286 286 287 286 286 285 285 286 286 285 285 285 285 286 286 286 285 286 287 288 287 287 287 286 283 284 283 283 283 283 283 284 284 285 285 285 285 285 285 284 283 282 281 277 274 273 273 273 272 271 272 272 272 272 272 272 273 272 271 270 269 268 269 268 268 268 268
285 285 285 285 285 285 285 285 286 286 286 287 287 288 287 286 286 286 286 286 286 286 285 285 285 285 285 286 285 284 283 284 284 285 285 285 285 286 286 286 285 285 283 283 283 283 283 283 283 283 284 284 284 283 282 282 283 283 282 282 278 275 274 273 273 272 271 272 272 272 272 272 272 272 271 270 268 266 267 266 266 266 266 266 266
284 284 284 284 284 284 285 286 286 285 286 287 287 287 286 286 286 286 286 286 286 286 286 285 285 285 285 285 285 284 282 283 283 284 284 284 284 285 284 284 284 284 282 281 281 281 282 281 281 282 283 284 283 282 282 282 281 281 280 278 275 274 273 273 272 271 272 272 272 272 272 272 271 270 269 268 267 267 267 266 264 264 265 265 264
284 283 282 284 285 285 285 282 284 286 286 286 286 286 286 286 286 286 286 286 286 286 286 285 285 285 285 285 284 283 283 283 284 283 283 284 284 284 284 283 283 282 281 280 280 281 281 281 281 281 281 281 280 278 279 278 278 277 276 275 273 273 273 273 273 272 272 273 271 271 270 270 268 268 268 268 267 266 267 265 264 263 264 264 262
281 281 282 284 283 283 284 284 285 285 284 284 286 286 285 286 286 287 287 287 286 286 286 286 286 286 286 285 284 283 283 283 284 285 284 284 283 283 282 282 282 281 281 281 279 279 279 279 278 278 277 277 276 276 276 275 275 275 273 272 271 271 270 271 270 270 270 270 269 269 268 268 268 268 267 267 267 266 267 265 264 264 263 264 263
282 281 282 283 282 283 283 283 282 283 284 284 284 283 281 282 283 283 284 283 283 283 284 284 284 285 285 285 285 284 283 284 285 285 285 284 284 284 283 283 283 281 281 282 280 278 277 277 277 276 275 275 275 274 274 274 273 272 272 271 270 269 269 269 269 269 270 269 269 268 267 268 267 267 267 266 266 267 266 266 263 264 262 262 263
283 282 282 281 279 281 282 282 282 282 282 282 282 283 283 282 282 282 282 282 282 282 284 284 284 284 284 284 284 286 284 284 285 285 284 284 284 284 284 283 283 282 282 280 277 276 276 275 275 275 275 275 275 275 274 273 272 271 270 269 269 268 269 269 269 270 269 268 268 267 267 267 266 267 266 266 265 265 265 265 264 263 263 263 262
282 281 281 280 280 280 281 280 280 280 281 281 281 282 282 282 281 280 281 281 281 281 282 283 283 283 284 284 283 283 284 284 284 284 284 284 284 284 284 284 284 283 282 282 276 275 276 275 275 275 275 274 274 274 274 273 273 272 271 268 268 268 268 268 269 268 267 267 266 266 266 266 266 266 266 265 265 264 264 263 263 263 263 263 263
279 279 279 280 280 280 280 280 280 280 279 279 279 279 280 281 281 282 280 279 281 281 281 281 281 282 283 283 284 284 284 284 284 284 284 284 284 284 284 284 284 283 283 279 276 275 275 275 275 275 275 274 275 275 275 274 273 272 271 271 269 269 268 269 269 267 267 266 266 266 266 266 266 265 265 264 264 262 263 263 263 263 263 262 262
276 277 277 278 279 279 279 279 279 279 279 279 279 279 279 279 280 279 280 281 280 280 280 281 281 281 281 282 282 283 283 283 283 283 283 284 284 284 284 283 284 284 282 278 277 275 276 275 274 274 275 275 275 274 274 274 273 272 271 271 270 269 267 267 266 266 265 266 265 265 266 265 265 264 264 264 264 263 262 262 262 262 261 262 262
276 274 272 275 278 278 278 278 278 278 278 278 278 278 278 278 278 278 279 278 279 279 280 280 281 281 280 281 282 282 282 282 283 283 283 283 283 284 284 282 280 281 281 280 278 277 276 276 275 275 275 274 274 273 273 273 272 271 271 270 269 267 266 265 265 265 264 264 264 264 265 264 264 264 263 263 263 263 262 262 262 262 261 261 261
276 277 276 276 277 277 277 277 277 277 277 277 276 277 277 277 277 278 278 278 278 278 278 279 278 281 281 281 281 281 281 282 282 282 282 283 283 283 280 279 279 279 279 280 279 278 277 276 276 276 276 274 274 273 273 272 271 270 270 269 268 267 265 264 264 264 264 264 264 264 264 264 263 263 263 263 262 262 262 261 261 262 262 261 261
276 276 275 275 275 275 275 275 275 275 276 275 276 276 276 276 276 276 276 277 277 277 278 278 278 277 279 279 280 280 280 280 281 281 281 282 283 282 280 279 279 279 278 278 279 278 277 277 277 276 276 275 274 273 272 272 271 270 269 269 268 267 265 264 264 264 263 263 263 263 263 262 263 262 262 261 262 262 261 261 261 261 261 261 261
271 272 272 273 273 274 274 275 274 275 275 275 275 275 275 275 275 275 274 275 275 274 275 276 276 275 275 277 280 278 278 279 280 280 280 281 281 280 280 280 279 279 278 278 278 278 278 277 276 276 276 275 273 272 271 271 270 269 268 267 267 266 266 265 265 263 263 262 262 262 262 262 262 261 262 261 260 261 261 261 261 260 260 261 260
272 272 272 273 274 274 274 274 274 274 274 274 274 273 273 273 273 274 274 274 274 274 274 274 274 274 275 276 277 278 277 276 277 277 278 279 279 280 280 280 279 279 279 278 278 277 277 277 276 276 275 274 272 271 270 269 269 268 267 266 265 265 265 263 263 262 262 262 262 262 261 261 261 261 261 260 260 261 260 260 260 260 259 259 259
272 272 271 272 273 273 272 272 272 272 272 272 272 272 272 272 272 272 273 272 272 272 272 272 273 273 275 275 275 275 274 275 276 277 277 278 279 279 279 279 279 279 278 278 278 277 277 277 275 274 274 273 272 270 269 268 268 267 266 265 264 263 263 263 262 262 261 262 261 261 261 261 261 261 260 260 260 260 260 259 260 260 259 259 259
272 271 270 271 271 272 271 271 271 270 270 270 270 271 271 270 270 270 270 270 271 271 271 271 272 273 273 274 274 274 273 273 274 275 276 277 277 278 278 279 279 278 278 277 277 277 277 277 276 274 273 272 271 269 268 267 266 265 264 264 264 263 263 263 262 262 261 261 261 261 261 260 260 260 259 260 261 260 259 260 259 259 259 259 259
270 270 270 270 270 270 270 269 270 269 269 269 269 269 269 269 269 269 269 269 269 269 269 270 270 271 272 273 273 273 273 272 273 273 274 274 275 276 277 277 278 278 278 277 277 276 276 276 274 272 271 269 269 268 267 266 266 265 265 264 264 263 263 262 262 261 261 261 260 260 260 260 259 260 259 260 259 259 259 259 259 259 259 259 259
268 268 268 268 268 268 268 268 268 268 268 268 268 268 268 268 268 268 268 268 269 269 268 269 269 270 270 271 271 272 271 271 270 272 272 273 273 273 274 275 276 276 277 277 277 276 275 275 274 274 271 269 269 268 267 266 266 265 264 264 263 263 262 262 261 260 260 260 260 260 259 260 259 259 259 259 259 259 258 258 259 259 259 258 258
267 268 268 267 267 267 267 267 267 267 267 267 266 267 267 267 267 267 268 268 268 268 268 268 269 268 268 269 269 269 269 269 270 270 271 271 272 272 273 273 274 274 274 274 275 274 274 273 273 273 271 269 268 268 267 266 266 265 264 264 263 262 262 261 261 260 260 259 259 259 259 259 259 259 258 258 258 258 258 258 258 258 258 258 258
267 267 267 267 267 267 266 267 266 266 266 267 267 267 267 267 267 267 267 267 267 267 267 267 267 267 267 267 267 267 268 268 269 269 269 269 270 270 271 271 271 272 272 272 272 272 272 271 271 270 269 269 268 266 266 266 266 266 265 265 264 262 262 261 261 261 260 259 259 259 258 258 258 258 258 258 258 257 257 257 257 257 257 257 258
266 266 266 266 266 266 266 266 266 266 266 266 266 266 266 266 266 266 266 266 266 266 266 266 266 266 266 266 267 267 267 267 267 268 268 268 268 269 269 270 270 270 270 271 270 270 270 270 269 269 268 268 268 266 266 265 265 265 265 264 264 263 263 263 262 261 260 260 259 259 259 258 258 258 258 257 257 258 257 257 257 257 257 257 258
265 265 265 265 265 265 265 265 265 265 264 265 265 265 265 265 265 265 265 266 265 265 265 265 265 265 265 265 265 265 266 266 266 266 266 266 266 267 267 268 268 268 268 268 268 268 268 268 267 267 266 267 266 265 264 263 263 263 263 263 262 262 262 262 261 261 260 260 260 259 259 258 258 258 257 258 257 257 257 257 257 257 257 257 257
263 264 264 264 263 264 263 264 263 264 264 264 264 264 264 264 264 264 264 264 264 264 264 264 264 265 265 265 266 266 266 266 266 266 266 266 266 266 266 266 266 266 266 266 266 266 266 265 265 265 265 265 265 263 262 262 262 262 261 262 262 262 262 261 261 260 260 260 259 259 259 258 258 258 257 257 256 257 256 256 257 257 257 256 257
262 262 262 262 262 262 263 262 262 262 262 262 262 262 263 263 262 263 263 263 263 263 263 263 264 264 264 265 265 265 265 265 265 265 265 265 265 265 265 265 263 264 264 264 264 264 263 263 263 263 263 263 263 263 261 261 260 260 260 260 261 261 260 260 260 260 259 259 258 258 258 258 257 257 257 256 256 256 256 256 257 256 257 257 256
261 261 261 261 261 261 262 261 261 261 261 261 261 261 261 261 261 262 262 262 262 262 263 263 263 263 264 263 264 264 264 264 264 264 264 264 265 265 264 264 263 263 263 263 263 262 260 260 261 261 261 261 261 262 261 260 260 260 260 260 260 260 260 260 259 259 258 258 258 257 257 257 256 256 256 256 255 255 255 255 255 256 256 256 256
260 260 260 260 260 260 260 260 260 260 260 260 260 260 260 260 261 261 261 261 261 261 262 262 262 263 263 263 264 263 263 263 263 263 264 264 264 263 263 263 262 262 262 262 262 262 259 259 259 259 259 260 260 261 261 261 260 260 260 260 260 260 260 259 258 258 258 258 257 257 256 256 255 255 255 255 255 254 254 255 255 255 255 255 255
Wind_Speed
8 8 8 8 9 10 10 9 10 9 11 11 10 10 9 8 8 8 7 9 8 8 9 9 9 10 10 10 11 11 11 10 9 8 9 9 8 8 9 8 9 7 8 8 7 8 8 8 8 7 7 7 5 4 4 4 3 2 2 2 2 1 2 2 4 4 1 3 2 1 2 2 1 1 1 1 1 2 3 3 5 5 6 6 6
7 8 8 8 8 8 9 8 9 9 10 10 10 10 10 10 9 9 10 9 9 10 10 9 9 10 10 10 11 11 11 11 10 9 9 9 9 7 8 9 8 9 8 8 8 7 8 9 8 8 7 7 5 5 5 5 4 4 3 3 3 2 2 2 3 4 4 2 2 2 1 2 1 0 1 1 2 2 3 4 4 4 5 6 6
6 6 7 8 9 7 6 7 7 9 9 10 11 11 10 9 8 9 9 8 8 9 10 9 9 9 10 10 11 11 12 12 11 11 10 11 10 8 8 9 9 9 9 9 9 8 8 8 8 7 6 7 6 5 5 5 5 5 5 3 4 3 2 2 2 4 3 2 1 1 1 1 1 1 1 1 2 2 3 4 3 4 5 6 6
5 6 7 8 8 7 7 6 7 8 9 9 10 9 8 7 6 8 8 6 8 7 8 9 9 9 10 10 10 10 10 11 11 11 12 11 10 10 9 8 8 9 10 10 9 9 9 9 8 8 8 8 7 6 5 5 5 5 5 3 3 4 3 2 3 2 2 2 2 2 0 0 1 0 1 1 2 2 3 4 4 4 6 6 6
4 5 6 7 8 8 8 7 8 9 9 7 9 8 8 7 6 7 6 7 6 7 6 6 9 10 10 11 11 10 11 11 11 10 9 9 10 10 9 8 8 8 8 9 8 9 9 8 9 9 9 8 7 7 7 7 5 6 5 4 4 4 3 3 3 2 2 2 2 1 1 2 2 2 2 0 2 2 3 3 2 4 6 6 6
5 5 5 6 7 8 8 7 8 8 8 8 8 7 7 7 6 5 6 7 6 6 7 7 8 9 9 10 10 11 11 10 11 11 9 8 8 8 9 8 8 8 8 8 8 8 9 8 9 10 10 10 9 8 8 8 6 6 6 5 5 4 4 4 3 3 2 2 2 2 2 2 1 2 1 0 2 3 3 2 3 4 4 7 6
6 6 6 7 7 7 6 6 6 6 6 7 5 6 6 6 7 7 6 7 8 7 6 7 6 7 8 8 8 8 10 12 12 10 9 9 9 9 9 9 8 8 8 8 7 7 7 8 9 10 9 9 9 10 9 8 6 7 6 6 5 5 5 4 4 3 2 2 2 3 2 2 2 2 0 0 2 3 2 3 4 3 3 5 9
6 6 7 8 8 8 6 5 5 5 4 4 4 5 5 5 6 6 6 7 7 8 8 9 7 6 7 8 9 9 9 8 9 9 9 9 10 9 10 9 9 8 8 8 7 7 7 7 8 8 8 7 8 8 9 8 7 6 5 5 5 6 5 4 4 3 3 3 3 3 2 2 2 1 1 1 1 1 1 2 5 5 5 5 6
7 7 8 9 9 7 6 4 5 4 4 3 3 3 4 4 4 5 6 6 7 8 8 9 8 8 7 7 8 8 11 11 10 10 9 9 9 10 10 10 10 9 8 7 7 7 7 6 7 6 6 8 10 8 7 7 8 8 6 6 6 5 4 4 3 3 2 2 3 3 2 3 2 0 1 1 1 2 2 2 4 4 5 7 7
6 7 8 8 6 5 4 3 3 3 3 3 3 2 1 1 2 3 4 5 5 6 6 7 8 9 9 8 6 6 6 5 9 16 14 12 9 8 8 9 9 8 8 8 7 7 7 6 6 9 10 10 11 11 10 8 5 5 7 6 6 5 4 4 3 3 2 2 3 3 3 3 1 0 1 1 0 1 2 2 4 5 5 6 6
7 7 8 7 4 3 3 3 2 3 3 2 2 3 4 4 3 2 2 2 3 3 4 6 6 6 7 9 10 8 7 6 13 15 15 16 12 10 10 9 8 8 9 10 10 9 8 7 6 9 9 9 9 11 9 9 8 8 8 5 3 5 6 5 4 3 3 3 2 2 3 2 2 0 2 1 1 1 2 2 4 4 4 6 9
8 8 7 4 3 4 3 3 2 3 3 3 3 3 3 3 4 5 5 4 3 3 4 5 5 6 6 6 7 8 8 9 14 14 14 15 13 11 9 9 9 9 9 10 9 9 9 9 7 7 7 8 9 9 9 10 10 9 8 7 5 4 3 3 5 5 4 3 3 3 2 3 1 1 1 1 1 2 2 2 2 2 3 3 4
7 7 4 3 3 2 2 3 3 3 3 3 3 3 4 4 4 5 6 4 4 5 5 4 4 3 4 5 6 4 4 11 14 15 15 16 15 13 9 9 10 10 10 10 10 10 10 9 9 7 6 11 9 8 8 8 9 10 8 7 5 5 4 3 1 2 2 2 2 2 3 1 2 2 0 0 2 2 2 2 2 2 2 4 5
6 4 1 1 1 1 1 2 3 3 2 2 3 3 4 5 4 3 3 4 5 5 4 6 5 6 6 6 5 5 6 11 16 16 17 17 17 14 9 10 10 10 11 11 10 11 11 11 9 8 8 9 8 9 8 8 8 7 6 5 5 5 6 6 3 2 1 2 2 3 2 1 3 1 1 1 1 2 2 3 3 3 4 5 7
5 2 1 1 1 1 2 2 3 1 1 2 2 3 3 2 3 3 4 5 6 7 7 6 6 5 6 6 6 6 6 13 16 17 17 17 16 12 8 8 9 9 9 9 10 10 11 10 11 10 9 9 8 10 10 9 8 6 6 6 6 6 6 5 5 4 4 3 3 2 2 2 1 1 1 1 2 3 2 3 3 4 5 5 5
1 1 1 1 1 1 2 2 1 0 1 1 2 2 1 2 3 2 2 2 1 2 2 3 5 5 5 6 5 7 4 9 11 12 13 14 15 7 7 9 9 8 9 9 9 8 9 10 10 10 10 9 11 16 11 9 8 8 8 6 6 6 5 5 5 5 4 3 2 1 1 1 2 2 3 3 2 2 2 2 2 3 3 3 4
1 1 1 1 2 2 2 2 2 2 1 1 1 1 2 2 2 2 3 2 2 2 2 1 2 4 5 4 6 5 4 8 10 10 11 14 11 5 5 6 7 9 9 9 8 8 8 9 9 10 10 9 14 17 16 12 8 9 8 7 5 4 3 4 6 6 5 4 3 1 4 5 6 7 8 8 5 1 1 2 2 0 1 4 5
2 2 1 2 2 3 3 3 3 3 3 3 3 2 1 1 2 2 3 4 4 3 3 3 3 3 4 5 5 5 4 9 13 13 14 15 11 7 7 8 9 9 8 7 6 6 8 11 9 10 10 10 17 18 18 13 9 7 7 8 7 5 4 5 4 5 5 2 1 3 4 5 5 6 6 5 4 4 3 3 1 0 1 1 4
2 3 2 1 2 3 4 3 3 3 3 4 3 4 3 3 2 2 1 2 3 3 3 2 2 2 3 3 5 5 4 8 14 14 16 16 14 8 8 8 10 10 9 7 4 5 6 7 10 9 9 12 20 18 19 12 8 10 10 8 8 6 6 6 6 6 4 2 2 2 3 6 5 4 4 5 5 5 4 3 2 1 2 1 2
3 2 0 1 1 3 3 3 3 3 3 3 3 3 3 3 3 3 2 2 2 3 2 2 3 2 3 3 3 4 4 5 11 16 17 18 18 10 8 10 13 12 9 8 8 5 6 5 7 12 13 17 19 19 18 16 9 8 7 7 8 9 7 6 6 5 3 3 2 2 3 4 3 3 3 4 5 5 3 1 1 1 1 1 2
3 3 1 1 1 1 1 2 3 2 3 3 2 2 1 2 3 3 3 2 3 3 3 3 3 2 2 3 3 3 4 5 8 16 17 17 19 15 10 12 11 11 10 9 8 8 8 7 6 12 16 17 18 19 18 17 11 8 8 7 6 4 8 6 6 7 3 2 2 2 2 3 3 2 3 3 3 3 2 1 0 1 1 2 2
0 1 1 0 0 1 1 1 1 1 1 2 3 2 2 3 3 3 2 2 3 3 3 3 2 2 2 2 2 3 3 7 6 13 16 17 19 19 11 10 10 11 9 9 8 7 6 6 7 13 17 17 17 17 18 18 15 7 7 8 8 11 6 5 4 4 3 3 3 3 3 3 3 3 3 3 2 2 1 1 1 1 1 2 3
1 1 0 1 1 1 1 2 2 2 2 2 2 2 2 3 3 3 3 3 3 3 3 3 3 3 2 3 2 3 3 4 9 9 14 16 18 19 15 10 9 10 10 12 11 6 4 5 6 14 17 17 17 17 17 19 15 7 11 12 11 12 9 5 5 4 4 4 3 4 4 4 3 4 4 3 2 2 2 0 0 1 2 3 5
2 2 2 2 2 2 2 2 2 1 2 3 3 4 3 3 2 2 2 3 3 3 2 3 3 4 4 3 3 3 2 2 6 10 11 15 12 15 11 8 10 9 7 4 2 4 7 8 9 17 17 16 17 16 17 16 10 13 13 14 14 12 6 5 5 5 4 4 4 5 5 4 3 3 3 3 2 1 1 0 0 1 2 3 6
3 4 4 3 2 2 2 2 2 2 2 1 2 2 3 3 3 2 3 2 3 3 2 2 3 3 3 3 2 2 2 2 3 7 10 12 12 11 10 7 10 7 7 4 6 3 4 8 12 17 16 16 16 17 15 16 17 14 16 15 12 6 5 5 5 5 6 6 6 5 4 4 4 3 2 2 1 0 0 1 1 1 1 4 7
4 4 3 3 3 2 3 2 3 3 2 1 1 1 2 2 1 2 2 2 2 3 3 3 3 3 3 2 1 1 2 2 2 3 6 7 8 9 8 9 9 10 7 3 6 8 9 11 14 15 15 13 11 9 8 8 14 15 15 13 7 6 5 5 6 7 7 6 5 5 4 3 3 2 2 1 1 1 1 0 0 1 1 3 5
4 4 3 3 2 2 1 1 1 2 1 0 0 1 1 1 1 1 2 2 2 2 3 3 3 3 3 3 2 2 2 2 2 2 3 4 5 6 7 7 8 7 6 4 6 6 8 8 7 9 7 12 10 6 6 7 8 9 7 6 5 5 5 5 6 6 6 5 5 4 4 3 2 2 2 2 2 2 1 1 0 1 1 2 4
4 4 3 3 3 2 2 4 2 1 1 0 0 0 1 1 1 2 2 2 2 2 3 3 4 4 3 2 2 2 3 3 4 4 3 4 3 2 2 3 3 3 3 3 3 4 4 6 7 6 5 7 7 3 5 4 6 5 6 5 5 4 5 6 5 4 4 3 3 4 3 4 3 4 3 3 2 2 1 1 1 1 1 1 3
5 4 3 3 3 2 2 2 2 2 1 1 0 2 2 0 0 1 0 1 2 2 2 2 2 2 2 3 3 3 3 5 5 4 3 5 3 3 4 4 3 1 3 7 6 4 4 5 6 6 7 8 7 7 6 6 7 6 6 6 6 6 5 5 8 6 5 4 5 5 5 5 4 4 4 3 3 2 1 1 1 1 2 3 6
4 3 3 3 3 2 2 2 2 1 1 1 0 1 5 5 3 1 2 7 7 5 4 2 3 2 1 2 2 4 3 1 8 9 8 8 6 4 5 6 5 4 7 12 7 5 4 5 7 7 7 8 8 9 9 9 9 8 8 7 7 6 6 6 6 6 6 5 5 5 5 5 5 5 5 4 3 2 3 4 2 1 2 4 5
3 3 3 3 2 2 2 2 2 2 2 2 1 1 0 3 6 6 4 3 4 5 6 5 4 3 2 2 0 4 6 6 7 8 10 10 10 9 9 8 10 10 13 8 6 9 10 12 11 10 10 9 10 11 10 11 11 6 6 7 7 6 7 7 7 7 6 5 6 5 5 5 5 5 5 4 4 3 2 2 2 2 4 4 4
4 3 3 2 3 3 2 2 1 2 1 1 1 1 1 1 1 4 5 6 4 4 4 4 4 2 2 2 3 1 3 6 7 8 8 9 10 11 12 12 12 14 15 13 9 8 8 11 10 10 10 10 12 9 9 11 10 9 6 5 6 7 8 9 8 5 6 6 6 5 6 5 5 5 4 4 3 3 3 3 3 3 4 4 5
4 3 3 3 2 3 3 3 2 2 2 2 2 1 1 1 2 0 2 3 3 4 3 2 1 3 2 3 3 5 4 3 6 8 9 10 11 11 11 12 12 14 15 10 10 10 10 11 12 12 11 12 12 9 9 9 9 9 9 10 10 10 9 8 6 7 7 6 6 5 5 5 5 5 4 4 4 4 4 3 3 2 3 4 5
6 4 3 3 3 3 3 3 3 3 2 2 2 2 2 3 3 3 3 1 1 3 4 3 2 1 1 2 3 4 3 3 6 8 10 11 13 13 13 10 14 16 15 9 7 9 7 8 10 11 11 10 9 8 8 8 7 7 7 9 9 6 5 6 6 7 5 7 5 4 5 5 5 5 4 5 5 4 4 4 4 4 4 4 4
3 5 7 5 3 3 2 2 2 2 2 2 2 2 2 2 2 2 2 3 3 3 2 1 3 3 1 1 2 3 5 5 6 8 9 11 12 13 12 7 8 9 11 10 8 9 9 10 10 10 9 10 10 8 8 8 7 8 8 7 5 5 5 5 4 4 4 4 4 5 4 5 5 5 5 5 5 5 5 5 4 4 4 3 3
4 3 3 4 3 3 3 3 2 2 2 2 2 1 2 1 2 2 2 2 2 2 2 2 2 2 0 2 2 3 4 5 5 7 7 10 10 11 8 9 8 8 8 9 9 9 8 9 9 9 8 8 8 8 9 9 9 8 7 7 8 6 6 4 5 5 4 6 6 6 5 5 4 4 4 4 5 4 3 3 3 3 3 3 3
3 3 3 3 3 2 2 2 2 2 3 2 2 1 2 2 1 1 1 2 2 2 2 2 1 1 1 1 1 2 4 5 6 7 8 9 12 9 7 7 8 7 8 9 9 9 9 10 9 9 8 8 7 6 6 7 7 7 7 8 8 8 8 5 4 4 5 5 5 5 5 4 5 5 5 4 4 4 4 4 4 4 4 5 5
5 4 3 3 2 2 2 2 1 2 2 2 1 1 1 1 1 1 1 2 2 2 3 3 3 3 3 3 3 1 1 3 5 6 7 7 7 7 7 7 8 8 9 8 8 8 9 8 6 7 8 7 7 6 6 6 6 6 7 8 8 9 8 6 8 6 5 4 4 5 4 4 4 4 5 5 5 4 4 5 5 4 4 6 5
3 6 8 6 4 3 3 3 3 3 2 2 2 2 2 2 1 1 1 1 1 2 2 2 2 3 3 3 2 2 1 2 2 3 4 4 5 6 7 8 8 8 8 8 7 7 8 8 5 5 6 6 6 5 6 6 5 6 6 6 6 5 6 5 5 4 4 4 4 4 4 4 5 5 5 4 4 5 4 4 4 4 4 4 5
3 3 5 7 3 4 3 2 3 3 3 3 3 3 3 3 3 3 3 2 3 3 3 3 3 3 3 3 3 4 4 4 3 4 4 4 5 6 7 7 8 8 8 8 7 7 7 7 4 4 5 4 5 5 5 6 7 6 6 7 8 7 5 5 5 6 6 6 5 5 5 5 5 4 4 4 4 4 4 4 4 5 5 5 4
3 3 3 5 5 3 3 3 3 4 3 3 3 2 3 2 3 2 3 3 3 3 3 3 3 3 4 5 8 8 6 6 5 5 5 5 5 5 6 6 6 7 6 6 6 6 7 7 6 5 5 5 4 5 6 6 6 6 7 7 7 7 6 7 6 6 5 5 4 4 4 4 4 5 4 4 5 4 4 4 4 5 5 5 4
4 4 4 4 4 4 3 3 2 3 2 2 2 2 2 2 2 2 2 3 2 3 3 3 3 3 4 9 8 10 6 6 5 6 6 6 6 6 6 6 6 7 7 6 6 6 6 6 4 3 4 4 5 6 6 6 6 7 7 7 8 9 10 10 9 9 8 7 4 5 4 5 5 4 4 5 4 4 5 5 5 5 5 5 4
3 2 2 2 3 3 2 2 2 2 2 2 2 2 2 2 2 2 2 2 2 3 3 4 4 3 4 6 7 9 5 5 5 6 6 6 6 7 7 7 7 6 6 6 6 5 4 5 6 4 3 5 5 6 7 8 7 6 6 7 8 9 10 9 9 9 8 7 5 5 5 5 6 5 4 4 4 4 5 5 5 4 4 4 4
2 2 2 2 1 1 1 1 2 1 1 2 2 1 1 1 2 2 2 3 3 3 3 4 4 4 3 4 4 4 4 5 5 6 6 6 6 6 6 6 6 6 7 7 6 5 5 6 7 6 2 1 2 3 5 6 6 8 8 7 7 8 9 10 11 10 9 7 5 5 5 5 5 5 5 5 5 5 5 5 5 5 4 4 4
2 2 2 2 2 1 1 1 1 1 2 2 2 2 2 1 2 2 2 2 3 3 3 3 3 3 3 3 3 3 3 4 4 5 5 6 6 6 6 6 6 6 6 5 4 4 5 6 6 5 5 4 2 3 4 5 6 6 7 8 8 9 10 12 12 9 7 6 5 5 5 5 5 5 5 5 6 6 5 6 6 5 5 5 5
2 1 2 2 2 2 2 2 2 2 2 2 3 2 2 2 2 2 3 3 3 3 3 3 3 3 3 3 3 4 3 3 4 4 5 5 5 5 6 6 6 6 6 5 4 4 5 5 5 5 6 5 3 3 4 4 5 5 6 6 8 8 7 7 6 8 7 6 5 5 5 5 5 5 6 5 5 5 5 5 5 5 5 5 5
2 2 2 2 2 2 2 2 2 3 2 2 2 2 2 2 2 3 3 4 3 4 4 3 3 3 3 3 3 3 4 3 4 4 4 4 4 5 5 5 5 5 5 5 5 6 6 5 4 5 6 6 4 4 4 4 4 4 5 4 4 5 6 6 7 7 6 7 7 6 6 6 7 6 7 6 5 6 6 6 6 6 6 5 5
2 2 2 2 2 2 2 2 2 3 2 3 2 3 3 3 3 3 3 3 3 3 3 3 3 4 4 4 4 3 4 4 4 5 5 4 4 4 4 5 5 5 5 5 5 4 4 4 4 5 6 5 5 3 4 4 5 5 4 2 3 5 6 7 6 6 6 6 6 6 7 7 6 6 6 7 6 6 5 5 5 5 5 4 4
2 2 2 2 2 2 2 2 3 2 2 2 2 2 3 2 3 2 3 3 3 3 3 4 4 4 4 4 4 4 4 5 5 5 5 5 5 4 5 4 4 5 5 5 5 5 4 4 3 3 4 4 4 4 2 3 3 3 3 2 4 7 8 8 5 6 7 6 5 5 5 5 6 6 6 6 6 6 5 5 5 5 4 4 5
2 2 2 2 2 2 2 2 1 2 2 2 2 2 2 2 2 3 3 3 3 3 3 4 4 4 5 5 6 5 5 5 5 5 6 5 5 5 5 5 4 5 5 5 5 5 4 3 3 3 3 3 4 4 3 2 3 3 3 4 8 10 8 9 8 8 7 5 6 5 5 5 5 5 5 5 5 6 6 5 5 5 4 4 4
2 2 1 2 1 1 1 1 1 1 1 2 2 2 2 2 2 3 3 3 4 4 4 4 4 5 5 5 6 6 5 5 5 5 5 5 5 5 5 5 5 5 5 5 5 4 3 2 2 3 3 3 4 4 3 3 4 4 6 8 10 11 10 9 7 9 9 6 5 5 5 6 6 6 5 5 5 5 6 6 5 6 5 5 4
Wind_Direction
239 237 234 235 237 238 238 233 232 230 230 224 219 215 214 206 197 199 190 202 190 195 198 195 191 188 184 183 181 180 177 176 173 170 173 169 165 157 162 161 153 152 146 146 148 149 147 141 138 134 141 146 155 157 158 143 133 125 130 139 152 173 211 210 197 223 225 116 137 164 113 122 234 178 219 265 303 299 307 297 292 285 286 287 294
233 237 240 241 240 236 237 236 234 233 231 226 225 225 223 223 205 194 204 202 194 199 199 196 193 188 187 185 185 182 178 175 169 171 170 163 160 160 164 160 155 150 148 148 153 147 143 137 136 137 150 148 154 161 153 145 148 145 157 166 167 181 241 214 224 188 218 160 159 111 143 139 203 202 184 277 278 294 287 283 278 273 281 285 284
239 235 236 234 235 242 243 238 235 232 232 230 232 229 228 223 203 201 204 201 198 200 197 195 192 189 189 187 186 184 181 174 172 173 167 167 163 162 166 164 161 153 157 156 153 146 140 138 140 143 153 161 164 159 149 153 161 161 162 172 170 176 195 245 213 209 207 234 120 192 168 135 175 225 263 248 271 263 276 276 277 278 277 281 281
239 237 236 237 238 239 238 234 232 230 228 226 225 223 218 215 208 207 204 198 200 202 198 192 190 190 188 189 187 182 180 175 172 174 169 170 169 167 169 170 169 163 162 158 156 154 150 148 152 153 162 164 159 157 160 168 166 156 155 159 162 167 192 211 254 224 203 191 257 167 96 117 240 229 234 231 228 266 262 271 268 280 287 283 284
254 247 244 242 239 243 240 232 228 224 225 219 222 218 221 219 211 212 203 206 200 194 199 192 191 191 191 188 185 184 179 173 172 171 171 174 168 164 167 167 162 159 160 157 155 153 156 158 159 163 171 161 160 163 169 168 162 152 154 163 166 174 181 197 209 215 193 216 256 242 191 230 218 233 219 244 300 281 267 257 287 285 285 285 286
251 257 254 250 249 247 248 244 235 228 223 222 219 214 213 213 206 207 199 197 188 192 192 193 193 194 194 191 186 181 175 176 174 173 169 159 156 158 158 155 156 153 152 153 157 156 157 160 162 169 174 169 166 165 163 164 160 158 160 167 169 168 185 191 190 188 207 240 235 273 237 208 260 241 166 124 286 296 285 297 302 285 297 300 295
240 241 246 246 246 245 242 243 246 242 231 223 215 210 210 204 198 199 189 190 184 187 192 193 198 193 191 182 185 185 183 176 175 171 161 158 156 155 153 151 154 150 151 151 155 156 162 169 170 175 177 171 165 164 160 160 162 159 163 160 163 177 181 184 181 178 199 219 243 232 237 238 193 234 119 86 242 254 302 321 298 296 291 305 307
233 240 239 241 239 240 235 234 242 246 253 244 222 214 206 200 200 191 179 186 184 187 186 188 189 188 188 185 183 177 178 182 173 162 157 155 153 156 155 154 153 148 149 152 156 161 169 171 172 177 173 167 164 156 156 155 152 153 155 156 171 181 186 168 169 179 195 215 227 232 244 232 250 192 161 219 289 270 60 326 306 311 309 302 295
221 227 235 237 238 238 239 228 230 236 240 253 254 238 222 207 197 183 185 190 188 189 185 182 176 185 185 186 185 185 184 179 169 157 151 154 158 157 155 155 153 152 148 144 154 161 167 164 166 171 146 136 139 141 145 147 153 154 160 167 175 182 173 163 166 178 194 202 237 231 225 241 223 153 272 270 277 291 314 321 295 301 304 298 294
223 228 239 241 237 227 230 234 232 229 222 216 212 206 239 270 212 196 200 197 192 186 184 185 185 184 180 179 174 181 189 180 165 160 160 158 160 154 148 151 153 152 153 157 162 171 167 159 142 131 127 128 127 127 127 124 118 140 159 167 175 172 164 157 169 179 177 200 226 215 236 236 211 194 237 258 256 307 322 318 307 309 307 297 289
222 226 238 238 229 208 213 225 207 217 212 191 178 170 170 157 166 188 213 198 191 185 175 180 188 188 187 180 176 179 183 178 167 167 164 157 152 152 152 154 156 160 165 170 174 167 160 145 127 131 129 129 128 129 121 114 106 101 108 125 153 166 157 160 175 161 171 211 213 225 234 241 238 155 243 248 287 9 305 310 305 314 328 340 327
232 233 241 234 221 214 201 196 195 210 180 187 180 174 151 155 172 173 167 170 175 160 186 196 192 185 184 185 190 184 174 162 164 165 159 155 152 151 155 158 165 172 172 175 172 169 157 151 143 146 151 146 140 132 127 124 123 121 120 115 100 102 161 169 164 166 178 190 219 219 217 237 235 248 255 315 305 310 289 307 299 317 325 321 303
238 241 234 217 232 218 194 189 205 200 203 183 168 152 162 165 168 165 186 180 147 167 189 176 185 171 168 180 175 166 152 156 161 162 160 160 158 154 162 167 171 181 179 176 173 168 158 150 145 153 147 143 138 138 138 135 132 132 130 130 139 157 164 157 59 94 147 183 210 239 228 242 251 238 73 315 316 275 298 293 307 313 309 298 291
246 264 271 256 245 232 223 215 210 207 187 172 161 165 172 191 186 172 147 138 164 171 168 177 171 174 174 170 170 166 157 165 163 165 168 168 166 163 168 172 176 179 181 178 175 170 164 156 149 151 151 154 153 150 149 144 146 144 151 161 167 178 191 179 157 102 349 191 208 222 253 179 245 290 3 8 284 282 296 287 305 302 295 284 297
253 267 285 238 182 202 218 232 237 206 173 165 167 183 189 168 152 164 166 174 176 181 176 175 179 171 167 165 166 174 180 176 172 172 174 174 171 165 163 167 172 177 178 178 176 171 166 162 158 150 153 162 166 162 156 155 153 156 161 172 176 179 184 184 178 183 184 210 222 238 250 268 280 320 308 286 270 277 283 280 287 287 277 273 269
294 333 264 198 200 210 203 222 233 165 142 145 187 207 185 176 174 152 143 152 142 127 142 151 166 172 170 163 164 177 165 176 176 177 173 173 169 168 164 169 171 168 170 172 172 169 166 164 156 152 156 165 166 165 160 152 153 158 165 173 176 176 185 179 178 176 177 198 215 246 349 0 319 277 272 267 272 267 287 296 271 247 267 295 291
289 266 245 210 199 193 194 193 190 173 158 158 200 197 184 176 147 138 141 151 149 152 161 159 168 166 162 161 162 162 140 170 178 180 177 171 166 171 163 169 171 170 172 169 170 168 169 164 159 153 160 165 168 168 163 154 153 161 165 174 172 168 180 168 165 175 106 94 64 344 289 281 275 264 255 252 241 221 227 251 244 55 344 308 300
260 263 246 207 194 187 186 184 183 172 168 193 196 183 149 127 144 157 169 166 173 173 161 154 156 170 175 180 180 173 172 173 180 184 181 178 172 168 170 175 177 175 166 164 159 162 169 164 158 160 165 167 169 171 169 160 162 159 163 169 172 176 191 173 163 181 148 143 246 262 263 259 257 252 242 229 218 215 192 217 229 86 257 274 286
249 257 248 197 182 178 178 179 179 175 187 199 186 177 173 168 133 136 142 144 148 133 140 146 147 155 176 183 180 180 169 175 185 187 185 183 176 177 177 181 177 176 169 165 157 158 160 165 168 170 171 164 171 174 173 165 164 174 174 172 177 189 194 175 170 171 175 169 216 192 245 230 226 226 217 214 218 217 225 203 227 211 225 252 290
267 264 135 144 150 169 171 182 184 177 190 186 179 184 158 141 145 157 147 144 139 144 142 140 160 168 160 181 189 194 177 177 189 191 190 187 182 178 182 177 185 180 174 164 161 167 164 166 175 181 173 168 174 177 178 175 170 171 170 181 186 201 180 178 170 164 162 159 202 216 225 227 208 220 220 209 214 205 210 238 221 203 209 224 236
290 281 266 130 136 155 154 175 192 194 179 175 156 135 139 145 139 149 155 135 131 132 143 138 150 137 149 183 187 208 189 179 189 193 193 190 187 184 190 196 189 176 171 169 175 169 172 180 178 183 177 174 177 180 182 183 177 174 184 194 201 156 143 140 151 144 150 175 191 221 229 224 220 222 228 218 214 203 188 197 175 242 223 209 248
318 307 287 320 167 124 127 110 117 127 117 132 140 146 119 127 143 148 150 133 140 141 147 151 156 155 148 170 180 194 179 184 177 192 193 194 193 193 197 202 187 171 168 179 179 185 177 172 171 181 181 178 180 182 187 191 186 173 191 186 173 161 139 134 131 144 166 179 192 205 207 213 209 217 220 219 214 190 161 179 232 241 272 253 228
13 56 62 72 71 73 86 123 120 115 125 125 140 137 123 133 141 146 133 132 148 157 169 164 168 172 162 189 181 191 180 183 181 186 195 195 196 200 205 199 164 178 182 185 192 177 147 157 164 174 180 177 181 186 191 196 192 182 186 188 182 164 147 143 151 168 184 187 192 209 211 207 212 215 214 215 206 159 172 175 294 310 303 288 287
41 73 94 84 77 79 79 65 61 71 131 139 140 137 142 137 146 166 153 161 177 188 192 189 195 202 204 201 195 185 176 173 183 186 191 196 195 200 200 189 170 195 194 199 146 116 168 179 174 174 179 179 182 188 195 197 194 195 193 191 186 180 153 157 165 177 182 180 194 211 211 206 203 220 221 209 195 160 133 3 302 309 300 293 285
63 63 59 69 83 74 69 75 94 88 82 108 139 140 138 141 159 155 157 173 188 197 195 184 206 216 214 217 200 170 168 172 171 192 194 199 199 198 198 182 182 167 191 176 165 138 127 154 162 174 177 178 184 192 200 201 201 201 201 196 184 162 165 166 175 177 187 190 197 202 199 199 204 217 221 185 126 96 131 255 251 237 269 277 273
72 68 61 66 54 68 82 78 72 68 83 128 171 141 147 172 167 162 169 183 176 179 184 182 207 213 226 226 199 156 159 166 185 180 198 200 202 199 183 187 183 190 194 122 144 140 148 158 168 177 178 180 185 193 193 195 203 201 203 201 170 176 173 178 187 190 192 187 185 190 187 179 199 192 193 183 196 221 180 189 55 317 304 276 285
78 72 62 70 82 70 90 78 107 108 112 117 127 116 123 157 167 173 179 207 201 203 207 199 202 213 218 217 174 148 171 191 195 175 179 180 192 195 189 191 184 170 165 132 144 156 158 156 172 177 182 185 184 185 183 185 199 200 198 183 169 180 184 192 196 195 188 184 176 170 168 171 165 159 207 199 217 230 159 146 129 270 263 284 284
63 60 51 40 54 63 57 69 49 92 118 139 144 147 166 183 217 206 200 209 211 217 224 213 210 215 214 204 173 169 193 206 208 196 178 178 176 146 146 135 162 165 143 122 111 119 129 135 152 167 163 179 184 170 184 182 183 181 181 177 182 179 180 192 208 210 203 171 145 142 139 158 185 199 197 199 207 202 161 126 201 281 296 311 284
72 66 57 59 52 42 50 51 39 35 70 96 47 36 27 27 312 282 3 342 356 327 269 246 228 227 223 207 189 199 195 216 220 126 105 110 131 159 177 181 146 110 121 129 113 115 134 159 176 177 184 186 184 188 185 183 193 188 182 184 182 183 183 191 204 202 185 163 163 164 166 176 192 193 190 194 206 183 198 144 256 219 279 263 252
73 60 53 55 48 40 38 51 46 34 39 39 73 118 121 104 80 37 14 22 22 52 39 356 2 336 284 262 200 223 229 189 108 134 139 144 155 113 96 108 156 151 160 172 165 152 184 184 195 185 184 191 195 196 194 194 187 192 199 187 184 182 189 199 201 199 185 174 163 165 172 177 184 189 187 190 198 184 183 193 201 230 235 248 258
78 75 68 63 46 31 45 45 42 29 37 22 11 8 130 118 109 107 105 50 50 28 34 19 11 7 354 307 273 156 102 112 140 151 147 161 176 188 193 187 187 182 179 162 180 195 195 199 200 199 204 202 207 206 199 188 201 184 184 190 196 182 192 198 202 187 179 164 174 167 169 182 184 187 178 189 178 185 165 199 189 208 231 242 258
62 53 51 51 62 39 52 64 55 59 38 45 16 4 357 337 126 105 100 105 82 53 35 44 33 5 328 285 286 310 154 135 148 167 170 171 183 188 189 191 189 183 184 176 193 222 205 211 214 215 209 209 216 208 203 202 212 207 189 168 200 189 191 204 194 165 169 168 171 171 177 183 182 184 175 173 170 177 188 198 207 211 234 251 256
56 57 47 44 55 54 40 40 35 33 33 24 15 20 353 355 343 102 142 148 138 133 125 89 56 20 349 320 289 280 311 132 167 177 185 191 194 198 194 194 188 185 181 193 215 223 223 222 227 226 217 226 223 216 218 214 216 212 209 214 216 211 203 199 171 175 183 178 171 175 177 177 181 171 169 165 170 184 201 194 201 218 224 239 256
49 45 39 33 42 44 44 41 37 40 37 26 23 9 11 2 357 349 332 338 163 171 183 180 154 139 292 277 291 282 273 211 193 190 197 202 204 205 201 204 207 206 204 213 214 232 231 234 239 242 239 237 240 233 234 233 225 223 221 224 224 212 177 161 157 185 173 180 177 172 173 173 171 158 170 172 185 180 189 199 200 203 223 234 242
76 77 47 18 48 47 46 42 42 44 40 43 31 34 27 13 3 344 350 348 341 343 356 130 172 181 222 308 282 276 260 251 226 217 212 211 211 214 213 216 217 223 221 224 219 228 231 232 238 238 240 240 242 234 238 239 231 224 221 220 209 176 154 171 177 167 159 169 162 175 171 167 174 173 169 173 180 187 192 192 202 206 208 226 246
45 50 48 34 32 41 36 37 33 34 35 28 35 24 27 23 14 3 0 336 334 335 327 26 67 64 179 291 313 325 304 276 259 245 239 226 221 209 216 223 224 225 225 229 228 231 234 239 242 245 237 234 232 233 233 237 233 226 214 207 210 187 170 171 177 171 164 176 188 174 168 167 170 161 172 176 188 184 184 189 198 213 216 219 236
36 44 41 29 23 36 42 51 40 30 18 25 14 23 30 20 21 359 348 337 334 333 325 336 336 328 177 204 200 312 295 286 275 261 249 237 228 222 222 223 227 226 224 228 227 230 231 236 234 242 244 242 235 229 225 233 228 221 216 210 206 191 187 170 164 149 156 171 178 173 165 164 164 167 173 173 192 178 188 195 197 208 210 220 228
37 31 22 358 0 37 40 48 44 22 44 35 26 32 11 23 16 3 338 332 337 325 317 323 325 305 314 324 95 130 313 298 277 264 254 245 237 226 228 233 235 238 239 240 236 238 244 244 230 233 240 239 235 224 221 228 219 211 211 210 208 212 197 191 190 157 149 151 164 162 160 159 164 161 177 173 185 186 190 191 187 199 218 217 214
69 53 30 13 33 26 21 22 23 24 29 24 34 25 15 7 0 345 345 332 331 315 316 308 304 303 309 319 332 305 238 280 240 236 222 220 220 225 229 234 236 239 244 245 246 245 250 253 246 237 237 231 224 217 210 217 207 212 207 200 193 161 186 163 169 166 165 164 157 160 158 169 171 173 180 179 188 185 181 192 199 201 200 210 220
36 33 23 22 32 32 33 24 23 30 22 18 15 13 5 6 6 358 349 344 330 330 324 319 314 321 333 350 336 325 299 277 258 253 241 233 225 226 227 233 238 240 242 246 246 247 250 252 228 223 230 219 213 209 207 202 208 205 180 171 170 179 179 166 172 171 176 174 167 176 164 173 170 161 166 183 176 185 185 194 201 206 210 212 213
23 30 26 31 18 22 36 35 37 25 13 16 7 6 12 2 352 343 338 326 323 321 311 309 307 315 325 316 311 308 295 286 287 286 279 275 266 253 245 244 248 252 257 256 254 255 256 260 253 237 226 217 205 202 204 202 196 186 183 199 199 179 164 163 165 167 160 162 157 154 143 151 159 164 173 187 183 186 197 194 202 212 214 213 209
14 15 19 13 17 26 30 32 28 15 13 14 4 12 357 351 343 331 326 315 307 306 300 301 301 305 309 307 305 303 297 284 288 284 286 287 289 285 281 278 275 274 274 272 271 267 266 267 262 229 225 220 209 209 202 201 184 167 204 209 210 208 205 182 165 163 155 147 148 148 151 158 160 175 177 184 184 190 190 204 206 208 208 206 205
13 19 18 16 18 29 25 21 13 16 13 14 1 354 342 337 333 325 316 312 308 306 307 304 303 311 310 313 313 309 297 287 281 280 279 280 278 280 282 284 284 283 280 284 286 285 285 275 274 263 225 223 227 224 220 206 180 170 198 214 211 209 207 176 160 163 149 139 153 157 150 164 168 172 170 183 177 189 201 205 213 213 206 207 207
14 15 18 22 19 25 14 24 11 7 11 332 295 289 322 323 326 319 319 314 318 316 311 310 311 313 312 314 312 300 293 292 291 287 288 286 285 284 284 285 288 293 291 286 285 286 277 278 278 282 277 196 214 233 236 233 206 204 211 214 214 211 204 177 163 168 163 149 157 153 163 164 165 164 173 184 189 195 208 207 208 207 202 214 212
13 14 10 7 12 14 1 15 13 354 339 331 347 347 341 341 332 332 323 316 315 320 309 310 308 305 304 308 303 299 294 293 293 292 291 290 291 291 291 292 290 290 294 293 288 285 284 275 275 276 271 262 200 206 225 228 222 218 221 217 213 207 205 184 182 131 126 137 158 148 159 162 166 172 181 193 195 196 202 206 204 205 206 212 211
9 8 13 9 9 10 10 1 0 3 357 354 348 348 344 341 336 336 328 323 317 315 314 307 301 299 295 294 299 297 298 294 294 292 290 291 293 295 297 299 300 300 299 300 304 298 290 285 277 273 270 268 241 216 224 229 223 220 220 221 213 211 199 182 157 138 158 162 160 153 162 160 167 178 182 181 187 199 203 207 203 203 205 207 214
10 15 14 15 10 7 5 356 6 355 347 344 344 340 338 335 332 326 317 315 312 304 300 298 300 299 302 298 295 293 294 293 289 290 289 289 288 290 289 292 299 304 306 305 303 295 291 278 264 257 261 265 257 232 224 226 225 222 216 193 164 168 167 163 162 163 160 169 168 161 169 168 175 177 184 191 193 199 201 207 202 207 209 201 195
11 20 13 14 6 5 4 3 1 344 349 345 346 340 323 323 324 321 320 317 314 310 306 304 301 299 300 300 295 298 297 298 297 298 296 298 295 300 304 308 305 304 303 301 296 290 279 271 262 261 264 263 256 234 223 219 222 216 202 180 172 188 168 155 140 155 157 152 168 171 175 176 176 176 179 185 191 191 190 202 200 204 201 202 199
18 13 13 10 10 3 0 7 354 347 340 335 330 319 321 321 317 312 306 309 308 308 304 303 302 304 301 300 303 300 301 302 303 303 305 304 304 301 303 304 309 305 302 294 293 288 275 264 252 248 258 260 257 241 186 183 194 189 171 163 159 170 163 152 142 156 149 153 161 167 173 170 172 177 182 185 187 194 197 199 197 196 198 195 188
13 4 12 358 7 351 354 346 335 331 320 323 313 312 308 308 304 303 304 301 302 300 300 302 303 305 306 303 302 303 302 302 302 303 305 303 305 304 305 305 304 302 297 295 293 292 275 265 254 260 255 259 254 250 220 180 184 184 170 182 190 182 170 169 155 145 150 166 158 163 161 168 170 178 183 182 182 187 192 196 198 201 198 192 193
359 355 3 352 340 327 328 322 314 315 319 303 309 303 303 298 300 299 300 300 296 301 300 301 302 300 297 297 300 301 300 297 299 299 297 298 299 302 301 301 300 299 297 296 287 287 272 260 255 255 246 253 247 243 221 201 189 189 195 195 198 198 186 177 175 169 156 145 151 155 168 174 181 178 185 184 185 184 196 193 195 196 196 191 188